Wetbulb
75.48 76.02 75.77 75.60 75.86 76.96 76.32 76.63 77.46 78.11 78.94 78.77 78.83 78.30 77.87 77.44 77.36 75.76 76.40 76.50 75.92 75.81 75.47 73.09 73.47 74.92 74.16 76.11 74.70 72.53 73.08 75.65 72.33 72.41 74.03 77.21 76.71 76.91 76.97 77.48 77.93 78.22 77.09
75.03 75.04 74.18 75.13 75.99 75.77 75.83 75.40 76.39 77.27 79.07 78.65 78.06 77.49 76.87 77.41 75.92 75.31 75.12 75.56 75.27 74.63 74.26 73.71 72.48 72.67 74.69 75.24 73.50 73.57 71.66 72.54 74.89 72.63 74.01 74.41 76.81 76.91 77.12 76.94 76.62 76.69 76.62
73.27 72.96 73.58 73.90 73.73 73.98 74.43 75.08 75.02 75.79 76.15 76.82 77.94 77.40 77.37 77.12 76.94 75.48 75.09 74.58 73.91 73.07 73.88 73.43 74.37 74.72 73.88 73.32 74.46 72.99 73.29 75.23 73.03 74.52 74.15 73.46 74.26 75.30 76.40 76.79 76.59 76.96 76.79
70.18 71.65 72.82 73.39 74.03 74.34 74.95 75.26 74.21 74.69 75.04 75.32 75.26 75.66 75.63 75.80 75.65 75.80 75.09 74.10 73.60 73.30 73.38 74.15 74.59 74.57 72.23 73.49 74.83 72.22 72.25 73.81 72.91 70.45 72.18 74.64 75.03 75.22 76.17 73.75 73.52 75.06 74.80
68.52 68.71 69.32 70.56 71.82 73.11 73.57 74.45 74.84 74.00 73.77 74.12 74.03 73.81 73.94 73.78 72.85 74.16 75.03 74.97 73.32 72.52 73.03 73.38 74.34 75.03 72.47 71.89 76.02 76.28 75.66 74.55 74.32 71.98 69.91 71.79 74.53 73.27 74.71 74.57 73.10 72.54 76.03
67.27 67.30 68.37 69.11 69.70 70.02 70.97 71.82 72.59 72.74 73.00 73.46 73.06 72.54 71.69 70.58 68.82 69.21 71.79 74.03 74.73 74.43 73.36 74.55 75.13 71.79 71.13 67.52 67.18 67.50 69.38 72.11 72.02 73.21 72.58 69.17 70.57 72.56 73.53 75.19 73.33 70.79 69.86
66.40 66.95 67.31 67.59 67.50 68.13 68.83 69.17 69.41 69.98 71.45 71.62 72.64 72.47 72.05 72.61 66.60 66.24 68.18 72.57 72.52 72.99 73.51 73.27 73.18 73.11 70.35 72.86 68.22 67.16 67.63 67.25 68.13 73.16 72.14 72.02 72.51 74.29 72.08 74.26 75.56 75.26 72.62
65.40 65.25 65.62 65.45 65.57 66.59 66.80 66.93 67.78 67.93 68.42 68.89 70.20 71.53 72.31 71.94 65.48 64.71 66.09 71.32 70.11 71.06 71.98 72.59 72.46 72.20 72.94 72.86 73.21 72.97 72.82 73.00 73.41 72.61 72.40 73.31 73.95 74.81 72.69 71.45 74.55 76.83 77.50
60.99 60.69 61.42 62.31 61.89 61.99 61.98 64.10 65.89 66.19 66.75 67.38 68.28 69.30 70.38 71.26 63.61 62.67 66.27 69.94 68.84 69.84 71.25 71.85 71.91 71.58 66.78 65.18 70.99 69.88 71.62 72.15 68.67 65.48 66.92 65.98 65.29 66.09 68.84 70.97 68.83 70.25 72.69
59.63 59.71 59.99 60.20 59.90 59.50 60.40 61.17 61.41 62.88 65.57 66.04 66.31 67.37 66.07 69.11 64.93 60.84 64.07 69.15 68.84 67.46 71.32 72.01 65.42 68.42 62.76 61.49 69.55 68.88 68.14 69.24 71.66 72.21 72.50 70.16 67.78 70.81 65.50 71.15 69.21 68.26 68.33
59.13 58.66 59.09 59.63 58.72 59.09 58.12 57.59 57.09 57.43 59.21 62.82 65.45 65.81 67.31 67.08 67.63 60.56 59.07 70.43 68.80 67.30 67.06 67.45 68.34 61.97 59.74 58.55 60.05 68.58 67.39 68.76 68.59 71.02 70.96 71.17 72.05 72.16 72.78 72.89 71.50 68.85 69.66
57.23 57.66 58.85 59.78 59.02 58.70 58.57 57.41 57.22 56.49 56.42 59.73 61.02 64.19 65.00 68.15 62.14 60.95 58.77 58.05 63.82 67.60 67.21 67.35 68.46 57.80 56.89 56.78 60.07 61.32 59.74 61.43 67.95 67.71 67.55 69.15 69.53 70.22 71.59 72.93 73.49 72.10 70.90
57.14 57.63 57.27 57.39 56.72 56.87 55.48 54.74 53.95 54.79 53.98 56.08 59.37 61.47 61.10 64.04 65.55 58.73 57.84 58.03 58.37 64.40 66.41 64.12 58.22 56.67 54.64 57.23 57.24 58.58 58.46 66.51 66.42 66.09 65.98 67.31 69.55 70.72 73.70 72.60 73.34 72.78 70.84
55.65 55.48 55.56 55.54 55.54 55.36 54.75 54.45 53.85 53.35 54.01 55.09 57.38 55.58 58.63 61.37 63.34 66.32 66.60 67.51 60.63 62.13 63.35 64.94 63.27 61.51 59.21 61.13 63.50 63.16 66.82 67.15 66.21 66.13 66.76 67.86 69.41 69.63 70.54 71.62 70.58 69.82 68.13
54.45 53.79 53.86 54.67 55.08 54.23 54.70 54.60 53.95 54.66 53.73 54.02 54.39 55.58 55.70 58.11 62.61 56.00 56.12 62.05 64.15 62.00 57.95 64.15 67.29 66.19 65.63 65.43 65.74 66.29 66.65 67.29 66.90 67.06 67.38 67.64 67.95 68.39 68.78 70.55 70.33 69.94 67.81
53.95 53.42 53.04 53.07 53.51 53.47 53.36 53.52 52.70 50.24 49.20 47.34 46.30 48.39 55.87 52.78 51.24 49.73 47.13 47.16 48.12 49.15 59.69 59.79 63.39 65.85 64.65 65.75 66.28 66.03 67.08 66.14 67.17 67.77 68.42 68.20 67.56 67.46 67.61 68.67 70.38 68.81 68.30
54.73 54.15 53.51 52.88 52.94 52.70 52.69 51.99 50.97 52.95 50.72 48.81 47.59 47.03 46.07 46.07 45.22 44.84 44.32 44.32 44.95 47.87 57.45 59.58 60.00 65.00 66.34 66.22 66.23 66.04 65.05 65.24 70.33 70.11 68.40 67.86 67.68 67.91 66.84 67.26 69.20 69.63 68.11
55.31 52.05 53.97 53.39 53.28 52.88 52.75 52.93 52.14 50.62 50.16 51.11 50.62 48.42 46.75 44.82 44.05 43.95 43.39 44.98 58.44 52.71 60.16 61.13 60.26 63.02 65.85 64.72 65.27 65.09 65.86 65.53 66.75 66.66 67.15 67.30 68.18 68.40 67.09 65.98 66.58 66.72 67.84
54.56 53.20 53.59 53.89 54.02 52.97 52.79 52.38 51.46 51.01 49.58 49.64 50.52 49.43 48.89 45.69 45.41 45.40 43.01 58.16 62.31 61.15 61.72 60.29 58.36 59.40 60.27 61.40 63.48 64.92 65.87 65.09 65.12 66.04 66.07 65.79 67.25 67.56 66.47 66.63 66.83 61.00 63.53
55.46 53.90 53.43 53.15 52.97 52.58 52.53 53.00 51.40 50.62 50.43 48.92 48.66 48.79 49.38 49.01 49.51 50.52 51.88 52.19 53.58 57.04 59.90 61.75 62.85 62.94 62.44 61.15 61.58 64.34 65.16 64.72 64.67 64.29 65.42 66.19 66.32 66.70 67.25 67.74 67.34 68.13 67.89
54.10 54.69 53.98 54.37 54.02 53.37 51.87 51.41 52.32 50.57 48.90 49.01 48.15 48.55 44.96 47.87 47.97 48.03 48.84 49.58 49.81 50.36 51.92 53.86 56.52 58.97 61.70 62.74 61.86 62.88 63.28 63.99 64.63 64.40 65.03 64.27 65.38 66.01 66.35 68.10 68.62 69.20 69.03
53.01 53.18 53.49 53.22 53.25 53.09 52.59 53.28 53.08 52.67 50.50 47.67 47.53 47.87 44.40 47.56 47.32 47.38 47.61 48.20 49.28 49.84 50.61 51.37 52.65 54.20 55.56 56.89 57.93 58.79 59.77 61.75 62.52 62.25 64.60 65.70 64.13 64.08 65.26 65.86 66.98 67.20 68.53
52.53 51.88 51.90 52.32 52.36 51.37 52.19 52.74 52.07 51.66 51.71 51.94 49.86 48.69 47.20 46.01 46.14 45.74 46.05 46.50 47.61 48.68 49.91 50.25 50.36 51.07 52.83 53.30 54.40 54.61 54.59 55.66 55.31 56.06 57.73 61.43 62.71 64.47 66.18 64.84 65.05 65.45 66.64
53.36 52.50 51.55 51.27 51.15 51.04 51.33 51.81 52.15 48.49 50.78 51.30 51.37 51.19 51.85 51.47 47.07 45.07 45.33 45.55 45.57 46.46 48.01 48.67 49.84 49.80 50.18 52.01 53.04 53.65 53.07 46.61 46.32 48.91 51.27 55.93 59.44 61.97 66.12 65.57 66.05 66.07 66.00
54.47 53.80 53.22 52.21 51.58 51.17 50.98 50.54 50.66 51.40 51.12 51.10 50.95 51.13 51.48 51.24 51.47 51.35 47.86 46.20 46.09 46.43 45.86 46.09 47.40 47.77 48.36 49.92 52.94 49.47 42.74 35.77 40.54 38.95 49.22 50.96 51.44 55.59 60.49 65.47 66.11 66.15 66.17
56.00 55.01 54.34 53.83 52.97 52.45 51.86 51.25 50.90 50.68 49.88 50.28 50.69 51.20 51.36 51.20 50.85 51.17 51.10 50.62 49.43 49.95 49.14 47.46 46.64 46.50 46.74 47.47 48.55 39.77 33.93 34.06 37.88 33.17 39.22 46.58 49.22 53.35 57.17 60.14 64.15 65.29 66.05
MSLP
1010.28 1010.56 1010.70 1010.75 1010.69 1010.81 1010.78 1010.69 1010.52 1010.39 1010.21 1010.16 1010.17 1010.26 1010.36 1010.39 1010.68 1011.05 1010.97 1010.57 1010.94 1010.94 1011.00 1011.32 1011.35 1011.65 1011.43 1011.60 1011.61 1012.47 1012.41 1012.53 1012.28 1011.09 1010.23 1010.16 1010.63 1011.26 1010.89 1010.78 1010.85 1010.83 1010.75
1010.29 1010.37 1010.22 1010.40 1010.46 1010.46 1010.26 1010.02 1009.85 1009.71 1009.82 1009.83 1009.84 1009.88 1009.97 1009.99 1010.55 1010.61 1010.63 1010.25 1010.22 1010.40 1010.66 1011.01 1011.15 1011.27 1011.45 1011.37 1011.33 1011.58 1011.92 1011.75 1012.02 1011.56 1010.80 1010.15 1010.16 1010.66 1010.97 1010.76 1010.42 1009.76 1009.72
1010.51 1010.27 1010.12 1010.18 1010.08 1010.06 1010.00 1009.92 1009.64 1009.54 1009.34 1009.14 1009.25 1009.31 1009.40 1009.38 1009.73 1010.02 1010.07 1010.12 1010.05 1010.15 1010.02 1010.11 1010.22 1010.31 1010.34 1010.62 1011.14 1011.00 1011.06 1011.29 1011.51 1011.50 1011.17 1010.75 1009.98 1009.66 1009.79 1010.32 1010.19 1009.93 1009.63
1011.14 1011.04 1011.04 1010.81 1010.39 1010.09 1009.96 1009.88 1009.73 1009.40 1009.18 1009.06 1009.00 1009.04 1009.10 1009.13 1009.15 1009.23 1009.52 1009.58 1009.58 1009.50 1009.45 1009.34 1009.36 1009.73 1010.17 1010.00 1010.45 1010.51 1010.67 1010.77 1011.00 1011.25 1010.96 1010.70 1010.22 1009.81 1009.50 1009.15 1008.99 1009.17 1009.05
1011.73 1011.47 1011.44 1011.59 1011.36 1010.87 1010.37 1010.01 1009.88 1009.64 1009.22 1009.04 1008.94 1008.77 1008.80 1008.75 1008.38 1008.40 1008.83 1008.90 1009.13 1009.04 1008.96 1008.76 1008.71 1008.74 1009.15 1009.38 1009.55 1009.55 1009.93 1010.14 1010.25 1010.30 1010.59 1010.49 1010.02 1009.97 1009.71 1009.49 1008.65 1008.22 1007.68
1012.18 1011.98 1011.91 1011.76 1011.48 1011.02 1010.62 1010.27 1010.00 1009.61 1009.30 1009.12 1008.68 1008.40 1008.35 1008.11 1008.10 1008.36 1008.69 1008.19 1007.91 1007.94 1008.10 1008.07 1008.20 1008.23 1008.49 1008.83 1009.10 1009.32 1009.68 1009.46 1009.27 1009.63 1009.79 1009.85 1009.56 1009.52 1009.48 1009.14 1008.64 1007.59 1007.26
1012.53 1012.40 1012.16 1011.76 1011.34 1010.97 1010.71 1010.33 1009.88 1009.46 1009.09 1008.73 1008.24 1008.03 1007.71 1007.74 1007.76 1008.00 1008.33 1008.09 1007.85 1007.43 1007.27 1007.31 1007.29 1007.01 1007.72 1007.91 1008.39 1008.88 1009.12 1009.13 1009.18 1009.05 1009.00 1009.03 1008.99 1009.04 1009.35 1009.08 1008.68 1008.23 1007.35
1013.03 1012.86 1012.47 1012.23 1011.83 1011.29 1010.72 1010.17 1009.78 1009.35 1008.89 1008.49 1007.96 1007.63 1007.44 1007.07 1007.22 1007.47 1007.60 1007.72 1007.21 1007.09 1006.92 1006.87 1006.92 1007.06 1007.17 1007.31 1007.40 1007.44 1007.60 1007.61 1008.08 1008.38 1008.32 1008.18 1008.21 1008.44 1008.84 1008.88 1008.72 1008.36 1008.05
1013.70 1013.48 1013.04 1012.65 1012.22 1011.76 1011.25 1010.61 1009.78 1009.04 1008.49 1008.05 1007.69 1007.33 1007.01 1006.78 1006.46 1006.82 1007.09 1006.85 1006.56 1006.44 1006.50 1006.62 1006.69 1006.73 1006.90 1007.45 1007.49 1007.16 1007.04 1006.88 1006.89 1007.20 1007.48 1007.48 1007.69 1007.96 1008.25 1008.67 1008.45 1008.12 1007.61
1014.04 1013.90 1013.82 1013.37 1012.71 1012.11 1011.54 1010.89 1010.28 1009.83 1008.59 1007.55 1007.07 1006.89 1006.61 1006.44 1006.02 1006.03 1006.30 1005.91 1005.50 1005.41 1005.40 1005.69 1006.18 1006.48 1006.71 1007.19 1007.26 1006.87 1006.49 1006.26 1006.11 1006.19 1006.75 1006.95 1007.07 1007.27 1007.49 1007.79 1008.04 1007.90 1007.61
1014.60 1014.35 1013.85 1013.34 1012.81 1012.21 1011.83 1011.40 1010.84 1010.22 1009.49 1008.34 1007.16 1006.62 1006.43 1006.14 1005.78 1005.55 1005.94 1005.64 1005.13 1004.60 1004.46 1004.17 1004.16 1005.04 1005.73 1006.35 1006.78 1006.56 1006.15 1006.17 1006.01 1005.82 1005.78 1005.64 1005.37 1005.68 1006.13 1006.66 1007.02 1007.30 1007.09
1014.94 1014.33 1013.53 1012.77 1012.31 1011.86 1011.50 1011.00 1010.59 1010.08 1009.26 1008.21 1007.53 1006.45 1005.57 1005.43 1005.21 1005.19 1005.23 1005.60 1005.39 1005.10 1004.71 1003.95 1003.57 1004.06 1004.85 1005.50 1005.95 1006.00 1006.02 1006.31 1005.76 1005.14 1004.67 1004.27 1004.05 1003.99 1004.30 1005.51 1006.06 1006.18 1006.28
1014.72 1014.06 1013.48 1013.03 1012.64 1012.23 1011.79 1011.08 1010.52 1010.01 1009.33 1008.39 1007.12 1006.40 1005.99 1005.09 1004.81 1004.17 1004.21 1004.63 1004.95 1005.09 1004.42 1003.82 1003.89 1004.18 1004.60 1004.85 1004.96 1005.09 1005.45 1005.11 1004.62 1004.12 1003.59 1003.19 1002.94 1002.98 1003.65 1004.79 1005.24 1005.32 1005.41
1014.89 1014.37 1013.72 1013.01 1012.40 1012.07 1011.54 1010.91 1010.37 1009.82 1009.28 1008.65 1007.75 1007.36 1006.83 1005.86 1005.07 1004.54 1004.49 1004.65 1004.82 1004.78 1004.31 1003.77 1003.54 1003.52 1003.35 1003.33 1003.41 1003.82 1003.81 1003.46 1003.09 1002.75 1002.37 1002.46 1002.26 1002.14 1002.56 1003.86 1004.28 1004.49 1004.76
1014.94 1014.46 1013.86 1013.20 1012.47 1011.92 1011.27 1010.60 1010.11 1009.58 1009.26 1008.90 1008.38 1007.78 1007.29 1006.22 1005.43 1005.40 1005.41 1005.13 1004.65 1004.44 1004.81 1003.82 1003.08 1002.45 1002.03 1001.90 1001.83 1001.77 1001.73 1001.70 1001.79 1001.90 1001.56 1001.33 1001.36 1001.30 1001.43 1002.35 1003.29 1003.47 1003.58
1014.95 1014.53 1014.04 1013.34 1012.53 1012.00 1011.17 1010.16 1009.68 1009.24 1008.71 1008.35 1008.01 1007.84 1006.84 1006.29 1005.65 1005.22 1005.07 1005.04 1004.87 1004.79 1004.47 1003.97 1003.13 1002.43 1001.67 1001.17 1000.75 1000.60 1000.23 1000.45 1000.49 1000.45 1000.43 1000.60 1000.64 1000.53 1000.66 1001.14 1002.07 1002.42 1002.39
1015.07 1014.60 1014.06 1013.37 1012.88 1012.10 1011.25 1010.60 1009.72 1008.84 1008.49 1007.89 1007.51 1007.21 1007.14 1006.68 1005.82 1005.18 1004.71 1004.54 1004.41 1004.53 1003.95 1003.23 1002.90 1002.14 1001.58 1001.25 1000.76 1000.19 1000.23 1000.11 1000.03 1000.42 1000.45 1000.33 1000.35 1000.72 1001.10 1001.07 1000.96 1001.27 1001.54
1014.92 1014.56 1014.04 1013.51 1013.00 1012.49 1011.76 1011.06 1010.51 1009.77 1008.95 1008.23 1007.67 1007.49 1006.92 1006.25 1005.46 1004.63 1004.22 1004.03 1003.52 1003.58 1002.70 1002.04 1002.04 1001.53 1000.82 1000.73 1000.44 999.85 999.39 999.26 999.38 999.35 999.64 999.50 999.56 1000.06 1000.18 1000.46 1000.52 1000.51 1000.50
1014.59 1014.55 1014.14 1013.53 1013.02 1012.62 1012.03 1011.43 1010.82 1010.32 1009.79 1009.08 1008.19 1007.39 1006.98 1006.38 1005.35 1004.70 1004.40 1003.72 1002.44 1002.24 1002.00 1001.94 1001.71 1001.25 1000.94 1000.73 1000.09 999.71 999.10 998.77 998.79 998.88 998.36 998.26 998.27 998.94 999.30 999.59 999.56 999.60 999.76
1013.51 1014.05 1013.85 1013.40 1012.94 1012.58 1012.11 1011.42 1011.05 1010.70 1010.10 1009.70 1009.04 1008.52 1007.78 1006.87 1006.04 1005.40 1005.04 1004.47 1003.60 1002.88 1002.18 1001.57 1001.23 1001.13 1000.92 1000.68 1000.23 999.80 999.25 998.93 998.40 998.15 997.82 997.51 997.23 997.13 997.77 998.27 998.47 998.37 998.42
1013.44 1013.11 1013.09 1012.48 1012.20 1012.20 1012.04 1011.63 1010.94 1010.90 1010.70 1010.19 1009.78 1009.35 1008.94 1008.03 1007.27 1006.56 1005.87 1005.25 1004.67 1004.04 1003.40 1002.80 1002.00 1001.35 1000.60 1000.20 999.99 999.72 999.09 998.63 998.19 997.77 997.30 997.14 996.99 996.23 996.39 996.40 997.18 997.54 997.51
1013.52 1012.99 1012.60 1012.27 1012.05 1011.72 1011.36 1010.73 1010.26 1009.91 1010.19 1010.42 1010.03 1009.59 1009.19 1008.58 1007.93 1007.22 1006.62 1005.91 1005.23 1004.71 1003.93 1003.37 1002.82 1002.15 1001.63 1001.04 1000.59 1000.14 999.62 999.15 998.78 998.07 997.38 996.51 996.52 996.18 995.68 995.33 995.60 995.94 996.47
1013.61 1013.07 1012.63 1012.26 1012.06 1011.66 1011.10 1010.58 1010.07 1009.83 1009.40 1009.41 1009.62 1009.35 1009.13 1008.84 1008.28 1007.82 1007.26 1006.58 1005.85 1005.11 1004.45 1003.93 1003.32 1002.67 1002.22 1001.79 1001.31 1001.07 1000.76 1000.40 1000.13 999.96 999.07 998.10 997.13 996.21 994.99 994.84 994.61 994.38 994.49
1013.51 1013.07 1012.66 1012.26 1011.99 1011.49 1011.05 1010.52 1010.05 1009.74 1009.42 1008.83 1008.44 1008.08 1007.85 1007.95 1008.18 1008.20 1007.60 1006.99 1006.39 1005.67 1004.99 1004.28 1003.67 1003.06 1002.57 1001.98 1001.56 1001.28 1001.18 1001.28 1000.90 1000.25 999.94 998.90 998.03 996.84 995.66 995.11 994.61 994.09 993.65
1013.03 1012.86 1012.49 1012.15 1011.81 1011.46 1011.08 1010.64 1010.23 1009.78 1009.41 1008.93 1008.51 1008.17 1007.74 1007.29 1006.92 1007.16 1007.49 1006.97 1006.33 1005.73 1005.11 1004.63 1003.98 1003.22 1002.81 1002.46 1001.62 1001.68 1001.45 1001.10 1001.02 1000.61 999.74 999.04 998.36 997.42 996.53 995.22 994.52 993.87 993.53
1012.74 1012.52 1012.21 1011.90 1011.58 1011.36 1010.98 1010.58 1010.23 1009.86 1009.60 1009.12 1008.75 1008.29 1007.88 1007.36 1007.01 1006.68 1006.41 1006.31 1005.98 1005.22 1004.75 1004.35 1003.88 1003.49 1002.88 1002.44 1001.93 1001.69 1001.27 1000.90 1000.69 1000.28 1000.01 998.94 998.03 997.05 996.08 995.20 994.13 993.27 992.86
Wind_Speed
4 4 4 5 5 6 7 9 9 8 8 7 6 7 7 8 9 9 12 11 13 13 11 8 12 12 10 6 8 6 7 8 10 13 7 4 7 9 10 8 9 9 9
6 4 4 4 4 6 5 5 5 4 4 5 5 6 7 8 8 10 11 12 13 12 12 11 13 10 13 12 8 10 8 8 8 14 13 9 9 11 12 12 10 10 11
6 7 8 8 7 6 6 6 5 6 4 5 6 7 8 8 9 10 11 11 12 11 13 13 13 13 11 8 10 7 8 8 8 9 10 11 12 10 11 12 12 12 10
11 10 10 11 11 9 9 9 9 8 8 6 6 7 7 7 8 9 10 11 12 13 15 14 12 13 12 15 13 11 8 8 7 7 8 10 9 11 8 11 11 12 12
11 11 10 10 11 11 12 11 10 11 11 10 9 9 8 8 9 9 10 11 11 12 14 15 16 14 18 14 9 11 10 10 9 9 8 8 9 8 10 10 12 12 10
11 12 11 11 11 10 9 10 11 12 12 11 12 12 11 9 4 5 8 11 11 11 11 12 13 10 11 6 9 10 12 11 11 7 8 8 10 7 9 10 13 12 13
12 12 12 13 13 13 13 12 11 12 12 13 14 14 13 12 9 10 11 10 11 11 10 9 9 8 6 8 14 13 12 13 13 11 11 10 11 11 8 11 12 11 11
12 13 14 15 16 16 16 15 13 12 12 11 13 15 14 12 11 12 12 12 12 13 12 11 9 9 8 7 8 9 10 10 12 11 13 13 11 8 6 7 12 12 11
12 13 15 16 16 15 16 17 17 16 14 13 13 14 15 16 11 13 10 12 13 14 12 11 11 11 8 8 10 10 11 11 9 12 11 10 8 5 7 3 7 8 10
15 16 15 15 16 17 18 17 15 14 17 14 15 14 16 17 15 13 12 11 13 12 12 12 12 14 7 8 10 10 12 12 11 10 11 12 12 12 13 11 6 8 8
15 16 15 15 15 15 13 13 14 14 15 17 16 13 15 17 14 12 14 10 11 13 13 13 12 20 17 14 12 10 12 9 11 10 11 11 11 12 8 9 10 8 8
15 14 15 15 14 13 16 14 12 12 15 15 12 14 12 15 15 13 12 14 11 11 14 15 15 12 16 16 12 12 12 8 11 12 13 12 12 11 9 9 11 9 10
14 15 16 16 14 13 12 13 11 11 10 12 10 11 10 11 10 16 14 15 14 12 13 14 10 5 10 9 12 13 11 11 12 13 13 13 13 11 7 10 10 9 8
14 15 13 14 13 12 9 9 10 9 8 9 9 6 9 12 10 9 7 4 7 9 12 14 15 14 12 11 7 13 12 13 13 14 14 13 13 12 9 9 9 8 7
13 13 12 12 13 12 10 9 9 10 9 9 10 7 9 11 10 7 7 10 9 7 7 11 9 12 13 14 15 15 14 13 14 14 14 13 13 13 11 9 11 10 9
12 10 10 11 11 10 10 11 8 12 16 16 16 12 11 13 18 16 12 12 12 10 10 7 10 10 10 10 10 11 10 12 13 12 11 11 12 12 12 12 9 12 11
10 11 9 9 10 11 10 9 12 10 12 11 12 12 5 11 15 17 15 10 10 7 7 8 9 11 10 9 11 11 10 9 10 8 10 11 11 9 10 11 9 11 11
10 8 9 9 10 10 10 10 9 10 11 12 11 14 16 19 22 16 10 5 7 7 9 10 8 11 11 9 9 11 12 10 6 9 12 14 10 10 10 9 10 10 12
8 8 10 9 9 10 9 9 10 9 9 10 11 11 16 22 19 11 7 9 8 5 5 7 6 7 7 8 7 10 10 9 6 8 11 12 10 10 10 10 10 13 11
7 2 6 8 8 9 9 10 10 11 10 9 9 11 13 13 11 11 10 9 10 9 8 7 6 7 8 7 8 10 8 8 8 9 10 13 13 12 12 11 10 13 12
8 8 5 7 8 8 8 9 9 8 8 9 9 10 19 10 10 10 10 9 8 8 9 9 8 7 7 6 7 9 9 10 10 10 10 8 10 12 13 13 11 11 12
8 9 9 9 9 9 9 8 8 9 9 8 9 10 15 8 9 9 9 10 9 8 7 8 8 8 8 8 8 8 8 9 11 11 12 12 10 9 10 13 12 13 11
9 10 9 9 9 10 9 9 9 10 10 8 7 6 6 8 8 9 10 11 10 9 8 8 7 8 7 7 7 6 7 8 9 9 10 11 11 11 11 11 10 11 13
8 9 9 8 9 10 9 10 10 10 10 11 11 10 10 7 5 8 9 9 10 9 9 9 8 11 11 10 6 5 6 8 9 9 12 12 12 14 13 14 13 16 16
7 8 8 9 9 9 9 10 10 11 11 11 11 11 11 11 10 9 5 7 8 8 9 9 9 13 13 16 11 15 16 14 11 10 8 10 13 17 17 15 15 15 16
7 7 7 7 7 8 8 9 9 10 10 10 10 10 11 11 11 10 10 8 9 7 7 5 6 9 12 10 14 19 14 12 12 10 8 8 10 13 14 18 25 16 18
Wind_Direction
67 24 345 325 295 268 252 248 248 249 254 256 236 232 230 240 232 230 239 244 222 233 238 256 244 247 250 249 226 231 238 238 248 266 260 243 204 245 267 234 239 231 219
30 355 332 306 303 298 300 309 296 284 249 239 240 244 236 230 229 224 236 237 231 231 234 230 237 239 224 240 238 239 225 239 238 249 270 278 225 236 249 250 253 248 235
344 337 324 316 310 299 289 297 306 301 276 243 236 242 240 235 224 222 232 242 241 242 242 236 232 234 230 226 233 229 226 226 239 247 254 256 264 244 223 235 246 244 261
3 351 326 316 311 295 296 288 294 301 293 285 279 276 264 254 244 240 231 237 237 239 235 241 240 231 226 228 232 227 231 247 223 236 258 259 259 263 266 249 230 221 240
348 341 345 330 317 305 299 294 294 294 294 285 275 268 263 257 247 232 241 244 241 243 245 248 251 238 234 239 231 223 225 226 229 238 235 249 253 247 242 246 243 257 224
336 330 326 320 317 318 316 300 293 288 278 270 266 261 262 263 104 204 256 261 243 237 236 243 244 233 224 224 258 265 279 259 253 243 246 237 252 250 250 244 259 235 233
339 335 333 333 329 325 321 313 304 300 291 283 269 260 255 261 218 202 216 243 263 257 249 244 255 243 171 240 208 214 229 234 240 258 253 246 254 257 254 254 254 270 262
344 343 344 341 332 326 321 315 309 298 293 288 277 276 264 252 229 210 204 245 261 258 260 256 249 256 244 246 247 240 243 233 217 221 236 251 248 245 237 253 274 261 265
340 341 336 333 325 321 318 320 317 311 303 290 281 280 270 265 240 219 198 233 247 255 255 253 252 252 246 187 248 254 254 253 235 221 241 266 290 269 246 258 258 264 247
345 336 328 324 326 325 320 318 310 310 302 294 293 287 283 270 264 234 209 245 244 251 247 231 208 238 253 186 240 255 258 260 259 262 222 239 243 246 222 228 228 243 255
332 327 322 319 317 315 314 311 309 304 299 302 293 286 277 270 271 271 214 243 260 255 250 254 251 193 207 200 217 253 262 292 277 263 254 256 242 241 233 219 215 219 252
324 319 317 323 328 325 319 313 308 305 302 285 294 281 281 272 241 250 240 220 265 265 265 269 272 167 189 198 197 233 249 253 258 257 257 251 245 242 233 219 230 222 229
326 325 326 322 320 318 310 301 302 305 303 312 297 302 305 294 304 224 210 212 225 247 263 269 318 252 205 205 220 231 227 241 247 251 251 249 249 255 224 248 234 231 232
328 324 321 319 324 319 308 302 301 295 291 294 295 302 313 306 296 304 323 341 260 264 255 254 255 264 277 279 266 213 231 242 241 245 246 245 254 247 222 229 238 213 221
333 333 327 326 325 323 313 305 297 292 293 299 291 291 291 296 299 340 318 308 304 304 322 308 283 251 239 237 236 238 242 240 227 236 249 248 246 251 241 229 240 225 226
342 337 333 328 334 329 330 328 314 260 273 270 264 253 281 270 281 287 293 282 275 274 272 264 266 264 264 259 254 258 242 232 245 239 243 248 255 253 244 239 208 232 228
342 339 337 344 342 340 342 338 332 339 328 302 327 321 332 283 310 304 292 288 251 186 236 246 252 262 262 259 259 259 241 234 243 255 260 239 232 230 245 259 255 225 228
358 331 343 348 354 347 346 346 345 343 341 343 344 348 349 338 330 315 300 269 255 212 250 246 242 252 239 251 255 255 248 254 250 235 226 241 234 249 246 234 231 229 230
359 346 342 345 350 351 351 348 360 356 350 345 345 348 351 343 325 344 342 284 290 290 266 251 254 273 295 297 290 280 268 253 228 259 261 259 230 238 247 235 232 233 232
355 76 337 344 347 350 352 360 5 357 356 353 355 357 349 345 356 350 350 351 348 345 330 293 270 263 256 259 279 281 275 283 270 259 256 250 251 244 228 236 233 238 226
342 353 333 353 352 2 356 352 356 8 351 353 352 351 344 349 349 349 341 343 344 341 341 335 328 328 310 303 283 285 269 252 255 253 249 251 273 264 256 226 226 232 240
346 349 355 357 353 353 350 353 352 359 14 353 345 345 347 357 353 353 341 345 340 337 337 330 330 333 334 334 337 331 331 337 337 338 308 261 261 265 252 253 224 235 225
354 353 354 357 356 335 358 350 359 358 354 6 350 335 352 350 352 349 349 346 341 341 342 341 338 338 339 336 332 330 327 332 336 330 322 322 311 284 266 263 260 245 215
360 358 355 358 2 341 359 342 353 352 347 354 355 357 3 5 347 340 344 340 337 344 348 342 340 353 338 339 325 358 12 346 328 315 316 304 295 294 279 268 261 259 258
4 357 356 357 354 355 350 352 351 348 349 348 351 352 350 353 1 2 333 323 325 330 342 343 346 344 344 319 336 353 337 329 327 317 307 289 274 275 277 276 268 265 260
336 339 341 345 351 346 347 348 349 348 349 344 346 349 343 346 353 348 356 354 341 331 328 294 294 311 323 328 338 332 320 316 324 312 303 296 289 277 263 257 263 256 255